Hourly Data Report for November 03, 2004

SHERBROOKE A
QUEBEC

45°26'00.000" N
71°41'00.000" W
241.40 m
7028124
71610
YSC

Download Data

Hourly Data (November 2004)
Hourly Data Report for November 3, 2004
TIME
LST
Temp Definition
°C
Dew Point Definition
°C
Rel Hum Definition
%
Precip. Amount Definition
mm

Wind Dir Definition
10's deg

Wind Spd Definition
km/h
Visibility Definition
km
Stn Press Definition
kPa
Hmdx Definition


Wind Chill Definition


Weather Definition


00:00 5.9 5.2 95   21 4 4.8 97.82     Rain
01:00 6.0 5.5 97   24 13 2.7 97.82     Moderate Drizzle
02:00 5.5 4.6 94   29 22 8.0 97.91      
03:00 4.3 3.2 93   30 19 8.0 97.95     Drizzle
04:00 3.9 2.9 93   30 13 8.0 98.04     Rain
05:00 3.4 2.3 92   29 24 8.0 98.15     Rain
06:00 2.7 1.3 90   28 22 15.0 98.25     Rain
07:00 2.4 0.7 89   29 22 15.0 98.39      
08:00 2.0 -0.3 85   30 17 24.1 98.56     Mostly Cloudy
09:00 2.0 -1.5 78   30 15 24.1 98.65     Mostly Cloudy
10:00 2.1 -1.9 75   29 26 24.1 98.74     Cloudy
11:00 1.9 -1.7 77   30 19 24.1 98.82     Cloudy
12:00 1.4 -2.0 78   30 15 16.1 98.94     Snow Pellets
13:00 1.8 -3.3 69   32 17 24.1 98.95     Cloudy
14:00 2.4 -4.0 63   30 19 24.1 99.02     Mostly Cloudy
15:00 2.4 -4.8 59   31 19 24.1 99.09     Mostly Cloudy
16:00 2.3 -4.6 60   30 20 24.1 99.13     Mostly Cloudy
17:00 2.0 -4.3 63   30 11 24.1 99.21     Mostly Cloudy
18:00 1.8 -5.0 61   33 17 15.0 99.31      
19:00 1.4 -6.1 57   33 19 15.0 99.35      
20:00 1.1 -5.8 60   30 9 15.0 99.32      
21:00 0.5 -5.1 66   30 9 15.0 99.32      
22:00 -0.3 -4.9 71   27 6 15.0 99.31   -2  
23:00 0.2 -4.8 69   28 11 15.0 99.33      

Notes on Data Quality.

Legend

  • E = Estimated
  • M = Missing
  • NA = Not Available*
  • [empty] = Indicates an unobserved value
Date modified: